BERRYESSA (BER)

Elevation: 456' · PUTAH CR basin · Operator: US Bureau of Reclamation

Provisional data, subject to change.
Query executed Monday at 13:10:04   clock

Select a sensor type for a plot of data.
Note: Reservoir Flows are daily averages.

Earlier

Date RES ELE    STORAGE    OUTFLOW    INFLOW    PPT INC   
 FEET   AF   CFS   CFS   INCHES  
10/26/2014 401.19 893969 125 -86 0.14
10/27/2014 401.19 893969 130 173 0.00
10/28/2014 401.16 893521 135 -57 0.00
10/29/2014 401.11 892776 128 -195 0.00
10/30/2014 401.11 892776 125 192 0.00
10/31/2014 401.08 892329 125 -81 0.00
11/01/2014 401.10 892627 125 275 0.19
11/02/2014 401.05 891882 125 -246 0.00
11/03/2014 401.02 891436 133 -49 0.00
11/04/2014 401.01 891287 140 93 0.00
11/05/2014 401.00 891138 147 105 0.00
11/06/2014 400.96 890542 155 -112 0.00
11/07/2014 400.93 890096 155 -32 0.00
11/08/2014 400.92 889947 155 113 0.00
11/09/2014 400.88 889352 155 -112 0.00
11/10/2014 400.86 889055 155 38 0.00
11/11/2014 400.84 888757 155 38 0.00
11/12/2014 400.80 888162 145 -127 0.00
11/13/2014 400.84 888757 140 464 0.13
11/14/2014 400.80 888162 130 -170 0.00
11/15/2014 400.78 887865 116 -15 0.00
11/16/2014 400.75 887419 110 -91 0.00
11/17/2014 -- -- -- -- --
11/18/2014 -- -- -- -- --
11/19/2014 -- -- -- -- --
11/20/2014 -- -- -- -- --
11/21/2014 -- -- -- -- --
11/22/2014 -- -- -- -- --
11/23/2014 -- -- -- -- --
11/24/2014 -- -- -- -- --

Later | Latest

Warning! This data is preliminary and subject to revision.

Show BER Map | Plot BER Data | 1 Month BER Data | Real-Time BER Data | BER Info